Latest Coastal Weather Observations for Port Fairy

IDV60701

Issued at 9:25 pm EDT Thursday 23 October 2014 (issued every 10 minutes, with the page automatically refreshed every 10 minutes)

About coastal observations | Map of coastal stations | Coastal observations for VIC | Marine services | Other Formats
Station Details ID: 090175 Name: PORT FAIRY AWS Lat: -38.39 Lon: 142.23 Height: 10.0 m
Data from the previous 72 hours. | See also: Recent months at Port Fairy
Date/Time
EDT
Temp

°C
Wind Pressure Rain
since 9am
mm
Weather Cloud Vis
km
Sea
Height
m
Swell
Dir
 
Speed
knots
Gust
knots
hPa Trend Height
m
Period
s
Dir
23/09:00pm 15.7 E 6 9 1015.7 - 0.0 - - - - - - -
23/08:30pm 15.5 ENE 6 10 1015.6 - 0.0 - - - - - - -
23/08:00pm 15.2 E 6 9 1015.6 - 0.0 - - - - - - -
23/07:30pm 15.3 ESE 5 7 1015.7 - 0.0 - - - - - - -
23/07:00pm 15.9 SE 6 8 1015.5 - 0.0 - - - - - - -
23/06:30pm 16.1 SE 7 9 1015.6 - 0.0 - - - - - - -
23/06:00pm 16.1 SE 10 13 1015.7 - 0.0 - - - - - - -
23/05:30pm 16.6 SE 11 15 1015.8 - 0.0 - - - - - - -
23/05:00pm 16.6 SE 12 16 1015.8 - 0.0 - - - - - - -
23/04:30pm 16.4 SE 13 16 1016.3 - 0.0 - - - - - - -
23/04:00pm 17.2 SE 12 14 1016.9 - 0.0 - - - - - - -
23/03:30pm 17.3 SE 10 13 1017.1 - 0.0 - - - - - - -
23/03:00pm 16.7 SE 10 13 1017.2 - 0.0 - - - - - - -
23/02:30pm 16.6 SE 9 12 1017.7 - 0.0 - - - - - - -
23/02:00pm 16.1 SE 9 12 1018.1 - 0.0 - - - - - - -
23/01:30pm 15.8 SE 10 13 1018.5 - 0.0 - - - - - - -
23/01:00pm 15.4 ESE 10 13 1019.0 - 0.0 - - - - - - -
23/12:30pm 15.2 ESE 11 15 1019.3 - 0.0 - - - - - - -
23/12:00pm 14.7 SE 12 17 1019.7 - 0.0 - - - - - - -
23/11:30am 14.7 SE 13 18 1020.1 - 0.0 - - - - - - -
23/11:00am 14.7 SE 13 18 1020.4 - 0.0 - - - - - - -
23/10:30am 14.0 SE 14 19 1020.7 - 0.0 - - - - - - -
23/10:00am 13.9 SE 15 19 1020.9 - 0.0 - - - - - - -
23/09:30am 14.1 SE 12 16 1020.8 - 0.0 - - - - - - -
23/09:00am 13.7 SE 14 19 1020.8 - 0.0 - - - - - - -
23/08:30am 13.4 SE 13 17 1021.0 - 0.0 - - - - - - -
23/08:00am 13.6 SE 15 19 1020.9 - 0.0 - - - - - - -
23/07:30am 13.5 SE 13 18 1020.9 - 0.0 - - - - - - -
23/07:00am 13.8 SE 11 18 1020.5 - 0.0 - - - - - - -
23/06:30am 13.5 SE 12 17 1020.4 - 0.0 - - - - - - -
23/06:00am 13.6 SE 12 17 1020.2 - 0.0 - - - - - - -
23/05:30am 13.4 SE 14 19 1020.2 - 0.0 - - - - - - -
23/05:00am 13.5 SE 13 17 1020.2 - 0.0 - - - - - - -
23/04:30am 13.6 SE 13 17 1020.1 - 0.0 - - - - - - -
23/04:00am 13.4 SSE 13 17 1020.2 - 0.0 - - - - - - -
23/03:30am 13.4 SSE 13 19 1020.2 - 0.0 - - - - - - -
23/03:00am 13.4 SSE 15 19 1020.4 - 0.0 - - - - - - -
23/02:30am 13.5 SSE 14 18 1020.5 - 0.0 - - - - - - -
23/02:00am 13.4 SSE 15 20 1020.5 - 0.0 - - - - - - -
23/01:30am 13.7 SSE 13 17 1020.6 - 0.0 - - - - - - -
23/01:00am 13.9 SSE 12 16 1020.8 - 0.0 - - - - - - -
23/12:30am 13.6 SSE 11 17 1020.8 - 0.0 - - - - - - -
23/12:00am 13.6 SSE 12 15 1020.9 - 0.0 - - - - - - -
 
Date/Time
EDT
Temp

°C
Wind Pressure Rain
since 9am
mm
Weather Cloud Vis
km
Sea
Height
m
Swell
Dir
 
Speed
knots
Gust
knots
hPa Trend Height
m
Period
s
Dir
22/11:30pm 13.9 SSE 11 15 1020.9 - 0.0 - - - - - - -
22/11:00pm 13.7 SSE 11 15 1020.7 - 0.0 - - - - - - -
22/10:30pm 13.8 SSE 11 15 1020.6 - 0.0 - - - - - - -
22/10:00pm 13.7 SSE 12 16 1020.7 - 0.0 - - - - - - -
22/09:30pm 13.8 SSE 11 16 1020.9 - 0.0 - - - - - - -
22/09:00pm 13.9 SSE 11 15 1020.6 - 0.0 - - - - - - -
22/08:30pm 14.1 SSE 12 15 1020.3 - 0.0 - - - - - - -
22/08:00pm 13.9 S 11 15 1020.0 - 0.0 - - - - - - -
22/07:30pm 14.1 S 11 16 1019.3 - 0.0 - - - - - - -
22/07:00pm 14.2 SSW 13 19 1018.7 - 0.0 - - - - - - -
22/06:30pm 14.4 SSW 13 18 1018.2 - 0.0 - - - - - - -
22/06:00pm 14.8 SSW 11 16 1017.6 - 0.0 - - - - - - -
22/05:30pm 14.9 SSW 10 17 1017.2 - 0.0 - - - - - - -
22/05:00pm 15.7 SSW 14 18 1017.1 - 0.0 - - - - - - -
22/04:30pm 15.9 SSW 14 19 1017.2 - 0.0 - - - - - - -
22/04:00pm 16.6 SSW 16 21 1017.0 - 0.0 - - - - - - -
22/03:30pm 17.3 SW 15 20 1016.7 - 0.0 - - - - - - -
22/03:00pm 18.9 SW 15 18 1016.6 - 0.0 - - - - - - -
22/02:57pm 19.5 SW 15 17 1016.7 - 0.0 - - - - - - -
22/02:30pm 22.1 SW 4 6 1016.5 - 0.0 - - - - - - -
22/02:00pm 18.6 S 2 4 1016.5 - 0.0 - - - - - - -
22/01:30pm 18.6 SW 9 11 1016.6 - 0.0 - - - - - - -
22/01:00pm 22.9 SSW 3 7 1016.5 - 0.0 - - - - - - -
22/12:30pm 23.4 S 1 3 1016.5 - 0.0 - - - - - - -
22/12:00pm 20.6 S 4 6 1016.9 - 0.0 - - - - - - -
22/11:30am 23.4 ESE 2 6 1016.5 - 0.0 - - - - - - -
22/11:00am 21.1 ENE 4 7 1016.7 - 0.0 - - - - - - -
22/10:30am 19.8 ENE 3 6 1017.0 - 0.0 - - - - - - -
22/10:00am 19.4 ENE 2 4 1017.5 - 0.0 - - - - - - -
22/09:30am 18.9 ENE 4 7 1017.4 - 0.0 - - - - - - -
22/09:00am 18.2 ENE 3 5 1017.3 - 0.0 - - - - - - -
22/08:30am 18.8 E 3 4 1017.3 - 0.0 - - - - - - -
22/08:00am 16.8 SSE 1 3 1017.3 - 0.0 - - - - - - -
22/07:30am 15.2 NNE 2 4 1016.8 - 0.0 - - - - - - -
22/07:00am 13.1 E 2 5 1017.1 - 0.0 - - - - - - -
22/06:30am 13.6 NW 2 5 1016.9 - 0.0 - - - - - - -
22/06:00am 14.9 ENE 2 4 1016.7 - 0.0 - - - - - - -
22/05:30am 14.8 ESE 2 4 1016.5 - 0.0 - - - - - - -
22/05:00am 15.2 N 7 9 1016.3 - 0.0 - - - - - - -
22/04:30am 15.1 NNE 5 7 1016.4 - 0.0 - - - - - - -
22/04:00am 15.4 NNE 7 10 1016.3 - 0.0 - - - - - - -
22/03:30am 14.6 NE 8 9 1016.4 - 0.0 - - - - - - -
22/03:00am 14.7 NNE 7 9 1017.0 - 0.0 - - - - - - -
22/02:30am 14.8 NNE 7 9 1017.5 - 0.0 - - - - - - -
22/02:00am 14.9 NNE 8 10 1017.9 - 0.0 - - - - - - -
22/01:30am 15.0 NNE 7 10 1018.3 - 0.0 - - - - - - -
22/01:00am 15.4 NNE 8 11 1018.7 - 0.0 - - - - - - -
22/12:30am 15.8 NNE 8 12 1019.2 - 0.0 - - - - - - -
22/12:00am 15.6 NNE 6 9 1019.4 - 0.0 - - - - - - -
 
Date/Time
EDT
Temp

°C
Wind Pressure Rain
since 9am
mm
Weather Cloud Vis
km
Sea
Height
m
Swell
Dir
 
Speed
knots
Gust
knots
hPa Trend Height
m
Period
s
Dir
21/11:30pm 15.5 NNE 6 8 1019.8 - 0.0 - - - - - - -
21/11:00pm 15.4 NE 4 5 1020.2 - 0.0 - - - - - - -
21/10:30pm 16.0 ENE 6 8 1020.5 - 0.0 - - - - - - -
21/10:00pm 15.6 ENE 5 7 1020.6 - 0.0 - - - - - - -
21/09:30pm 15.5 E 4 5 1020.8 - 0.0 - - - - - - -
21/09:00pm 15.4 E 6 10 1020.4 - 0.0 - - - - - - -
21/08:30pm 15.3 E 6 8 1020.6 - 0.0 - - - - - - -
21/08:00pm 15.6 E 5 8 1020.7 - 0.0 - - - - - - -
21/07:30pm 16.0 E 7 10 1020.7 - 0.0 - - - - - - -
21/07:00pm 16.7 E 7 10 1020.8 - 0.0 - - - - - - -
21/06:30pm 17.1 ESE 7 12 1020.9 - 0.0 - - - - - - -
21/06:00pm 17.6 ESE 9 15 1021.1 - 0.0 - - - - - - -
21/05:30pm 18.6 ESE 9 14 1021.2 - 0.0 - - - - - - -
21/05:00pm 18.1 ESE 9 13 1021.7 - 0.0 - - - - - - -
21/04:30pm 17.8 ESE 10 13 1021.8 - 0.0 - - - - - - -
21/04:00pm 18.4 SE 10 14 1021.9 - 0.0 - - - - - - -
21/03:30pm 18.6 SE 9 12 1022.2 - 0.0 - - - - - - -
21/03:00pm 18.9 SE 8 11 1022.8 - 0.0 - - - - - - -
21/02:30pm 19.0 SE 8 11 1023.0 - 0.0 - - - - - - -
21/02:00pm 19.0 SE 9 11 1023.5 - 0.0 - - - - - - -
21/01:30pm 19.7 SE 7 10 1023.7 - 0.0 - - - - - - -
21/01:00pm 19.2 SE 7 9 1023.9 - 0.0 - - - - - - -
21/12:30pm 20.9 ESE 6 8 1024.1 - 0.0 - - - - - - -
21/12:00pm 19.1 ESE 7 8 1024.6 - 0.0 - - - - - - -
21/11:30am 19.0 E 5 8 1024.9 - 0.0 - - - - - - -
21/11:00am 18.1 ENE 5 9 1025.1 - 0.0 - - - - - - -
21/10:30am 16.2 E 7 10 1025.2 - 0.0 - - - - - - -
21/10:00am 14.9 ENE 7 12 1025.5 - 0.0 - - - - - - -
21/09:30am 13.0 ENE 7 11 1025.5 - 0.0 - - - - - - -
21/09:00am 12.1 ENE 6 11 1025.7 - 0.0 - - - - - - -
21/08:30am 11.1 ENE 8 13 1025.7 - 0.0 - - - - - - -
21/08:00am 10.3 ENE 7 10 1025.7 - 0.0 - - - - - - -
21/07:30am 10.2 NE 8 12 1025.4 - 0.0 - - - - - - -
21/07:00am 10.3 ENE 10 16 1025.3 - 0.0 - - - - - - -
21/06:30am 9.9 ENE 7 13 1025.2 - 0.0 - - - - - - -
21/06:00am 9.8 ENE 7 10 1025.1 - 0.0 - - - - - - -
21/05:30am 9.9 ENE 6 10 1025.3 - 0.0 - - - - - - -
21/05:00am 9.9 ENE 5 8 1025.5 - 0.0 - - - - - - -
21/04:30am 9.8 ENE 5 8 1025.7 - 0.0 - - - - - - -
21/04:00am 10.0 ENE 5 10 1025.8 - 0.0 - - - - - - -
21/03:30am 10.2 ENE 5 8 1026.0 - 0.0 - - - - - - -
21/03:00am 10.6 ENE 9 15 1026.0 - 0.0 - - - - - - -
21/02:30am 11.0 ENE 11 16 1026.2 - 0.0 - - - - - - -
21/02:00am 11.6 E 11 17 1026.7 - 0.0 - - - - - - -
21/01:30am 11.9 E 11 20 1027.2 - 0.0 - - - - - - -
21/01:00am 12.0 E 11 22 1027.5 - 0.0 - - - - - - -
21/12:30am 12.2 E 11 16 1027.7 - 0.0 - - - - - - -
21/12:00am 12.1 E 11 17 1028.0 - 0.0 - - - - - - -
 
Date/Time
EDT
Temp

°C
Wind Pressure Rain
since 9am
mm
Weather Cloud Vis
km
Sea
Height
m
Swell
Dir
 
Speed
knots
Gust
knots
hPa Trend Height
m
Period
s
Dir
20/11:30pm 12.0 E 11 16 1028.1 - 0.0 - - - - - - -
20/11:00pm 12.0 E 11 15 1028.3 - 0.0 - - - - - - -
20/10:30pm 11.8 E 11 16 1028.5 - 0.0 - - - - - - -
20/10:00pm 11.9 E 11 15 1028.5 - 0.0 - - - - - - -
20/09:30pm 12.6 E 12 17 1028.5 - 0.0 - - - - - - -

Other Formats:

Comma delimited format used in spreadsheet applications
http://www.bom.gov.au/fwo/IDV60701/IDV60701.94830.axf

JavaScript Object Notation format (JSON) in row-major order
http://www.bom.gov.au/fwo/IDV60701/IDV60701.94830.json